Regional Weather Roundup
Issued by NWS Binghamton, NY

Home | Current Version | Previous Version | Text Only | Print | Product List | Glossary On
Versions: 1 2 3 4 5 6 7 8 9 10 11 12 13 14 15 16 17 18 19 20 21 22 23 24 25 26 27
000
ASUS41 KBGM 271510
RWRBGM

REGIONAL WEATHER ROUNDUP
NATIONAL WEATHER SERVICE BINGHAMTON NY
1100 AM EDT TUE SEP 27 2016

Note: "fair" indicates few or no clouds below 12,000 feet with no
significant weather and/or obstructions to visibility.

* = Station(s) that does not report precipitation, such as rain,
snow, etc, also no thunder or fog.

NYZ009-015>018-022>025-036-037-044>046-055>057-062-271600
...Central New York...

CITY           SKY/WX    TMP DP  RH WIND       PRES   REMARKS
Binghamton     SUNNY     59  51  75 SW8       29.94S
Cortland       FAIR      63  50  63 SW6       29.91F
Dansville      SUNNY     66  46  48 S5        29.89F
Elmira         SUNNY     64  50  60 SW5       29.91F
Ithaca         SUNNY     64  49  57 S9        29.92F
Hamilton       MOSUNNY   66  52  59 SW3       29.91F
Hornell        SUNNY     64  46  52 SW3       29.93F
Monticello     MOSUNNY   61  55  82 W3        29.98S
Norwich        SUNNY     63  52  67 SW5       29.94S
Oneonta        SUNNY     59  54  82 W5        29.94F
Penn Yan       SUNNY     65  48  54 SW9       29.90S
Rome           MOSUNNY   64  55  72 VRB3      29.91F
Sidney         SUNNY     64  57  77 CALM      29.94S
Syracuse       MOSUNNY   66  50  56 S8        29.88F
$$

PAZ038>040-043-044-047-048-072-271600
...Northeast Pennsylvania...

CITY           SKY/WX    TMP DP  RH WIND       PRES   REMARKS
Hazleton       SUNNY     63  52  67 W5        30.01S
Scranton       SUNNY     64  54  69 VRB6      29.96F
$$
&&
KEY
WCI = Wind Chill Index
VSB = Visibility
HX  = Heat Index
$$




USA.gov is the U.S. government's official web portal to all federal, state and local government web resources and services.